Location: Derby
(52.9213°N, 1.4761°W)
Time: 03:07:23
(UTC+01:00)

A-11 Canister half - Visible Passes

Search period start: 23 April 2026 00:00
Search period end: 03 May 2026 00:00
Orbit: 1523 x 1685 km, 47.3° (Epoch: 22 April)

Date Brightness Start Highest point End Pass type
(mag) Time Alt. Az. Time Alt. Az. Time Alt. Az.
23 Apr 9.2 01:05:48 34° SSW 01:09:58 51° SSE 01:19:39 10° E visible
23 Apr 9.1 03:04:23 10° W 03:14:21 65° S 03:24:20 10° ESE visible
23 Apr 9.4 05:09:05 10° W 05:18:42 50° SSW 05:28:13 10° SE visible
23 Apr 9.9 22:44:36 24° SE 22:44:48 24° SE 22:52:10 10° E visible
24 Apr 9.2 00:42:34 26° SW 00:48:08 50° SSE 00:57:47 10° E visible
24 Apr 9.1 02:42:31 10° WSW 02:52:29 65° S 03:02:29 10° ESE visible
24 Apr 9.4 04:47:12 10° W 04:56:52 51° SSW 05:06:27 10° SE visible
24 Apr 9.9 22:16:00 10° S 22:23:03 22° SE 22:30:11 10° E visible
25 Apr 9.2 00:16:52 10° SW 00:26:18 49° SSE 00:35:54 10° E visible
25 Apr 9.1 02:20:41 10° WSW 02:30:38 65° S 02:40:38 10° E visible
25 Apr 9.3 04:25:20 10° W 04:35:02 52° SSW 04:44:40 10° SE visible
25 Apr 10.0 21:54:29 10° S 22:01:17 21° SE 22:08:11 10° E visible
25 Apr 9.2 23:55:07 10° SW 00:04:29 48° SSE 00:14:00 10° E visible
26 Apr 9.1 01:58:50 10° WSW 02:08:46 65° S 02:18:46 10° E visible
26 Apr 9.3 04:03:29 10° W 04:13:11 53° SSW 04:22:52 10° SE visible
26 Apr 10.0 21:33:00 10° S 21:39:31 20° SE 21:46:09 10° E visible
26 Apr 9.3 23:33:22 10° SW 23:42:39 46° SSE 23:52:08 10° E visible
27 Apr 9.1 01:37:00 10° WSW 01:46:54 64° S 01:56:54 10° E visible
27 Apr 9.2 03:41:36 10° W 03:51:21 54° SSW 04:01:04 10° SE visible
27 Apr 10.1 21:11:32 10° S 21:17:46 19° SE 21:24:06 10° E visible
27 Apr 9.3 23:11:37 10° SW 23:20:50 45° SSE 23:30:14 10° E visible
28 Apr 9.0 01:15:10 10° WSW 01:25:02 64° S 01:35:03 10° E visible
28 Apr 9.2 03:19:44 10° W 03:29:30 55° SSW 03:39:16 10° SE visible
28 Apr 9.3 22:49:53 10° SW 22:59:00 44° SSE 23:08:20 10° E visible
29 Apr 9.0 00:53:20 10° WSW 01:03:11 64° S 01:13:11 10° E visible
29 Apr 9.2 02:57:52 10° W 03:07:39 56° SSW 03:17:27 10° SE visible
29 Apr 9.4 22:28:09 10° SW 22:37:11 43° SSE 22:46:27 10° E visible
30 Apr 9.0 00:31:30 10° WSW 00:41:19 63° S 00:51:19 10° E visible
30 Apr 9.1 02:36:01 10° W 02:45:48 57° SSW 02:55:38 10° ESE visible
30 Apr 9.7 04:41:05 10° W 04:49:33 32° SW 04:58:00 10° SSE visible
30 Apr 9.4 22:06:26 10° SSW 22:15:23 41° SSE 22:24:33 10° E visible
1 May 9.0 00:09:40 10° WSW 00:19:27 63° S 00:29:26 10° E visible
1 May 9.1 02:14:09 10° W 02:23:57 58° SSW 02:33:48 10° ESE visible
1 May 9.7 04:19:10 10° W 04:27:45 33° SW 04:36:19 10° SSE visible
1 May 9.4 21:44:43 10° SSW 21:53:34 40° SSE 22:02:38 10° E visible
1 May 9.1 23:47:51 10° WSW 23:57:36 62° S 00:07:34 10° E visible
2 May 9.1 01:52:18 10° W 02:02:06 59° SSW 02:11:59 10° ESE visible
2 May 9.6 03:57:16 10° W 04:05:57 34° SW 04:14:38 10° SSE visible
2 May 9.5 21:23:01 10° SSW 21:31:46 39° SE 21:40:45 10° E visible
2 May 9.1 23:26:02 10° WSW 23:35:45 62° S 23:45:41 10° E visible
